{"data":{"norad_id":56469,"epoch":"2026-09-20T22:00:03.000096Z","epoch_age_seconds":76000,"freshness":"FRESH","line1":"1 56469U 23064X   26263.91670139 -.00005674  00000+0 -36161-3 0  9993","line2":"2 56469  70.0012 352.2250 0004888 261.6743  56.5704 15.08000691  5718","mean_motion":15.08000691,"eccentricity":0.0004888,"inclination_deg":70.0012,"raan_deg":352.225,"arg_perigee_deg":261.6743,"mean_anomaly_deg":56.5704,"bstar":-0.00036161,"rev_number":571,"period_min":95.490672424367,"perigee_km":538.92729610421,"apogee_km":545.69272510177,"semimajor_km":6920.447010603,"source":"CELESTRAK","updated_at":"2026-09-21T09:00:33.445305Z"}}